Location: Newark
(25.1987°N, 100.3705°W)
Time: 03:56:15
(UTC+00:00)

X-37B - Pass Details

Date: 12 August 2021
Orbit: 381 x 393 km, 45.0° (Epoch: 29 August)

Event Time Altitude Azimuth Distance (km) Brightness Sun altitude
Rises 11:48:50 0° 316° (NW) 2,244 4.2 -6.3°
Reaches altitude 10° 11:50:56 10° 322° (NW) 1,390 3.2 -5.8°
Maximum altitude 11:53:59 48° 39° (NE) 504 1.6 -5.2°
Drops below altitude 10° 11:57:01 10° 115° (ESE) 1,388 4.1 -4.5°
Sets 11:59:07 0° 121° (ESE) 2,240 5.1 -4.1°
